Lafayette, IN

3:43 AM EDT on April 22, 2018 (GMT -0400)
Purdue Univ

Weather History for KLAF - June, 2015

Change the Weather History Date:

Saturday, June 20, 2015

  Actual Average Record
Temperature  
Mean Temperature 72 °F 73 °F  
Max Temperature 77 °F 84 °F 99 °F (1988)
Min Temperature 67 °F 62 °F 40 °F (1992)
Degree Days  
Heating Degree Days 0 0  
Month to date heating degree days 19 22  
Since 1 June heating degree days 19 22  
Since 1 July heating degree days 6502 5672  
Cooling Degree Days 7 8  
Month to date cooling degree days 136 125  
Year to date cooling degree days 225 202  
Since 1 June cooling degree days 136 125  
Growing Degree Days 22 (Base 50)    
Moisture  
Dew Point 67 °F    
Average Humidity 86    
Maximum Humidity 93    
Minimum Humidity 79    
Precipitation  
Precipitation 0.00 in 0.13 in 3.14 in (2011)
Month to date precipitation 4.35 2.75  
Year to date precipitation 13.29 16.77  
Sea Level Pressure  
Sea Level Pressure 29.85 in    
Wind  
Wind Speed 8 mph (NE)    
Max Wind Speed 13 mph    
Max Gust Speed 18 mph    
Visibility 8 miles    
Events      
T = Trace of Precipitation, MM = Missing Value Source: NWS Daily Summary

Daily Weather History Graph

Daily Weather History Graph

Search for Another Location

Airport or City:

Astronomy

Jun. 20, 2015 Rise Set
Actual Time 6:17 AM EDT 9:21 PM EDT
Civil Twilight 5:44 AM EDT 9:54 PM EDT
Nautical Twilight 5:02 AM EDT 10:36 PM EDT
Astronomical Twilight 4:12 AM EDT 11:26 PM EDT
Moon 10:23 AM EDT (6/20) No Moon Set
Length of Visible Light 16h 10m
Length of Day
15h 03m
Waxing Crescent, 17% of the Moon is Illuminated
Jun 20
Waxing Crescent
Jun 24
First Quarter
Jul 1
Full
Jul 8
Last Quarter
Jul 15
New

Hourly Weather History & Observations

Time (EDT) Temp. Dew Point Humidity Pressure Visibility Wind Dir Wind Speed Gust Speed Precip Events Conditions
12:23 AM 68.0 °F 64.9 °F 90% 29.91 in 10.0 mi NE 10.4 mph - N/A   Overcast
12:54 AM 68.0 °F 64.9 °F 90% 29.88 in 10.0 mi ENE 8.1 mph - N/A   Mostly Cloudy
1:54 AM 66.9 °F 64.9 °F 93% 29.86 in 9.0 mi East 9.2 mph - N/A   Mostly Cloudy
2:03 AM 66.9 °F 64.9 °F 93% 29.87 in 8.0 mi East 8.1 mph - N/A   Scattered Clouds
2:54 AM 66.9 °F 64.9 °F 93% 29.86 in 7.0 mi NE 8.1 mph - N/A   Clear
3:22 AM 66.9 °F 64.9 °F 93% 29.87 in 7.0 mi NNE 10.4 mph - N/A   Mostly Cloudy
3:54 AM 66.9 °F 64.9 °F 93% 29.86 in 7.0 mi NE 8.1 mph - N/A   Overcast
4:23 AM 66.9 °F 64.9 °F 93% 29.86 in 7.0 mi ENE 10.4 mph - N/A   Overcast
4:54 AM 66.9 °F 64.9 °F 93% 29.83 in 8.0 mi ENE 10.4 mph - N/A   Overcast
5:19 AM 66.9 °F 64.9 °F 93% 29.84 in 8.0 mi ENE 8.1 mph - N/A   Overcast
5:54 AM 66.9 °F 64.9 °F 93% 29.83 in 7.0 mi ENE 10.4 mph - N/A   Overcast
6:54 AM 66.9 °F 64.9 °F 93% 29.83 in 5.0 mi ENE 9.2 mph - N/A   Overcast
7:54 AM 66.9 °F 64.9 °F 93% 29.84 in 4.0 mi NE 8.1 mph - N/A   Overcast
8:54 AM 68.0 °F 64.9 °F 90% 29.83 in 4.0 mi NE 6.9 mph - N/A   Overcast
9:54 AM 69.1 °F 66.0 °F 90% 29.86 in 5.0 mi NNW 6.9 mph - N/A   Overcast
10:54 AM 71.1 °F 66.0 °F 84% 29.88 in 6.0 mi North 10.4 mph - N/A   Haze
11:46 AM 71.1 °F 66.9 °F 87% 29.90 in 5.0 mi North 5.8 mph - N/A   Overcast
11:54 AM 72.0 °F 66.9 °F 84% 29.88 in 5.0 mi North 9.2 mph - N/A   Haze
12:54 PM 72.0 °F 66.9 °F 84% 29.89 in 5.0 mi NNW 9.2 mph - N/A   Haze
1:54 PM 73.0 °F 68.0 °F 84% 29.87 in 7.0 mi NW 6.9 mph - N/A   Overcast
2:54 PM 73.9 °F 66.9 °F 79% 29.85 in 9.0 mi West 4.6 mph - N/A   Overcast
3:54 PM 75.9 °F 68.0 °F 76% 29.81 in 10.0 mi South 6.9 mph - N/A   Overcast
4:54 PM 75.0 °F 68.0 °F 79% 29.83 in 10.0 mi SW 8.1 mph - N/A   Overcast
5:54 PM 75.0 °F 68.0 °F 79% 29.83 in 10.0 mi SW 8.1 mph - N/A   Overcast
6:54 PM 75.9 °F 68.0 °F 76% 29.83 in 10.0 mi SSW 8.1 mph - N/A   Mostly Cloudy
7:08 PM 77.0 °F 69.1 °F 76% 29.83 in 10.0 mi SSW 6.9 mph - N/A   Scattered Clouds
7:49 PM 75.2 °F 69.8 °F 83% 29.84 in 10.0 mi SSW 8.1 mph - N/A   Mostly Cloudy
7:54 PM 75.9 °F 69.1 °F 79% 29.82 in 10.0 mi SSW 6.9 mph - N/A   Mostly Cloudy
8:13 PM 75.9 °F 69.1 °F 79% 29.85 in 10.0 mi Calm Calm - N/A   Scattered Clouds
8:54 PM 75.0 °F 70.0 °F 84% 29.84 in 10.0 mi NE 4.6 mph - N/A   Mostly Cloudy
9:05 PM 75.0 °F 70.0 °F 84% 29.86 in 10.0 mi NNE 3.5 mph - N/A   Overcast
9:54 PM 73.9 °F 70.0 °F 87% 29.84 in 10.0 mi SSW 4.6 mph - N/A   Partly Cloudy
10:54 PM 73.0 °F 69.1 °F 87% 29.85 in 10.0 mi South 5.8 mph - N/A   Clear